Stephenville, TX

11:58 AM CDT on June 22, 2017 (GMT -0500)
Clark Municipal

Weather History for KSEP - April, 2014

Change the Weather History Date:

Thursday, April 24, 2014

  Actual Average Record
Temperature  
Mean Temperature 72 °F -  
Max Temperature 82 °F 79 °F 93 °F (1950)
Min Temperature 62 °F 52 °F 33 °F (2013)
Cooling Degree Days 7    
Growing Degree Days 22 (Base 50)    
Moisture  
Dew Point 49 °F    
Average Humidity 49    
Maximum Humidity 85    
Minimum Humidity 18    
Precipitation  
Precipitation 0.00 in - - ()
Sea Level Pressure  
Sea Level Pressure 29.87 in    
Wind  
Wind Speed 12 mph (West)    
Max Wind Speed 21 mph    
Max Gust Speed 28 mph    
Visibility 10 miles    
Events      
Averages and records for this station are not official NWS values.
T = Trace of Precipitation, MM = Missing Value Source: NWS Daily Summary

Daily Weather History Graph

Daily Weather History Graph

Search for Another Location

Airport or City:

Trip Planner

Search our weather history database for the weather conditions in past years. The results will help you decide how hot, cold, wet, or windy it might be!

Date:

Astronomy

Apr. 24, 2014 Rise Set
Actual Time 6:53 AM CDT 8:08 PM CDT
Civil Twilight 6:27 AM CDT 8:34 PM CDT
Nautical Twilight 5:57 AM CDT 9:04 PM CDT
Astronomical Twilight 5:25 AM CDT 9:36 PM CDT
Moon 3:47 AM CDT (4/24) 3:41 PM CDT (4/24)
Length of Visible Light 14h 06m
Length of Day
13h 15m
Waning Crescent, 24% of the Moon is Illuminated
Apr 24
Waning Crescent
Apr 29
New
May 6
First Quarter
May 14
Full
May 21
Last Quarter

Hourly Weather History & Observations

Time (CDT) Temp. Dew Point Humidity Pressure Visibility Wind Dir Wind Speed Gust Speed Precip Events Conditions
12:15 AM 72.7 °F 61.0 °F 67% 29.77 in 10.0 mi SSE 12.7 mph 24.2 mph N/A   Clear
12:35 AM 72.1 °F 61.2 °F 68% 29.78 in 10.0 mi South 11.5 mph 18.4 mph N/A   Clear
12:55 AM 71.6 °F 61.2 °F 70% 29.78 in 10.0 mi SSE 11.5 mph 16.1 mph N/A   Clear
1:15 AM 70.9 °F 61.0 °F 71% 29.78 in 10.0 mi SSE 10.4 mph - N/A   Clear
1:35 AM 70.2 °F 61.2 °F 73% 29.78 in 10.0 mi South 16.1 mph 19.6 mph N/A   Clear
1:55 AM 69.8 °F 61.2 °F 74% 29.78 in 10.0 mi South 10.4 mph 18.4 mph N/A   Clear
2:15 AM 69.3 °F 61.0 °F 75% 29.78 in 10.0 mi South 15.0 mph 20.7 mph N/A   Clear
2:35 AM 68.5 °F 60.8 °F 76% 29.78 in 10.0 mi South 13.8 mph 21.9 mph N/A   Clear
2:55 AM 68.0 °F 60.8 °F 78% 29.78 in 10.0 mi South 10.4 mph 20.7 mph N/A   Scattered Clouds
3:15 AM 68.2 °F 60.8 °F 77% 29.77 in 10.0 mi South 13.8 mph 17.3 mph N/A   Overcast
3:35 AM 68.2 °F 60.3 °F 76% 29.77 in 10.0 mi South 13.8 mph 23.0 mph N/A   Overcast
3:55 AM 68.0 °F 59.9 °F 75% 29.77 in 10.0 mi South 16.1 mph 21.9 mph N/A   Overcast
4:15 AM 66.7 °F 59.4 °F 77% 29.76 in 10.0 mi South 13.8 mph 23.0 mph N/A   Scattered Clouds
4:35 AM 66.2 °F 59.0 °F 78% 29.76 in 10.0 mi South 16.1 mph 23.0 mph N/A   Clear
4:55 AM 65.5 °F 59.0 °F 80% 29.76 in 10.0 mi South 13.8 mph 20.7 mph N/A   Clear
5:15 AM 65.3 °F 59.0 °F 80% 29.76 in 10.0 mi South 11.5 mph - N/A   Clear
5:35 AM 64.6 °F 59.0 °F 82% 29.75 in 10.0 mi South 12.7 mph - N/A   Clear
5:55 AM 64.4 °F 59.0 °F 83% 29.77 in 10.0 mi South 11.5 mph 18.4 mph N/A   Clear
6:15 AM 64.0 °F 59.0 °F 84% 29.77 in 10.0 mi South 13.8 mph 20.7 mph N/A   Clear
6:35 AM 63.7 °F 59.0 °F 85% 29.78 in 10.0 mi South 12.7 mph 17.3 mph N/A   Clear
6:55 AM 63.5 °F 59.0 °F 85% 29.78 in 10.0 mi South 10.4 mph 17.3 mph N/A   Scattered Clouds
7:15 AM 63.9 °F 59.0 °F 84% 29.82 in 10.0 mi SSW 6.9 mph - N/A   Mostly Cloudy
7:35 AM 64.2 °F 59.0 °F 83% 29.82 in 10.0 mi South 8.1 mph - N/A   Overcast
7:55 AM 64.4 °F 59.2 °F 83% 29.82 in 10.0 mi South 9.2 mph - N/A   Scattered Clouds
8:15 AM 65.5 °F 59.5 °F 81% 29.83 in 10.0 mi South 9.2 mph 16.1 mph N/A   Clear
8:35 AM 66.4 °F 59.5 °F 79% 29.82 in 10.0 mi South 13.8 mph 19.6 mph N/A   Clear
8:55 AM 67.5 °F 59.7 °F 76% 29.83 in 10.0 mi South 12.7 mph 17.3 mph N/A   Clear
9:15 AM 69.3 °F 59.9 °F 72% 29.83 in 10.0 mi South 11.5 mph 16.1 mph N/A   Clear
9:35 AM 70.9 °F 60.1 °F 69% 29.84 in 10.0 mi SW 12.7 mph 16.1 mph N/A   Clear
9:55 AM 72.9 °F 60.3 °F 65% 29.84 in 10.0 mi SSW 13.8 mph 19.6 mph N/A   Clear
10:15 AM 74.5 °F 60.6 °F 62% 29.85 in 10.0 mi SW 11.5 mph - N/A   Clear
10:35 AM 76.3 °F 60.4 °F 58% 29.85 in 10.0 mi WSW 12.7 mph - N/A   Clear
10:55 AM 78.3 °F 59.4 °F 52% 29.86 in 10.0 mi West 11.5 mph 16.1 mph N/A   Clear
11:15 AM 79.7 °F 57.2 °F 46% 29.86 in 10.0 mi West 12.7 mph - N/A   Clear
11:35 AM 79.3 °F 43.5 °F 28% 29.88 in 7.0 mi NW 20.7 mph 27.6 mph N/A   Clear
11:55 AM 77.9 °F 44.1 °F 30% 29.89 in 5.0 mi NW 19.6 mph 26.5 mph N/A   Clear
12:15 PM 77.4 °F 41.4 °F 28% 29.90 in 5.0 mi NW 18.4 mph 25.3 mph N/A   Clear
12:35 PM 77.2 °F 41.0 °F 27% 29.91 in 7.0 mi NW 15.0 mph 27.6 mph N/A   Clear
12:55 PM 77.5 °F 42.8 °F 29% 29.92 in 10.0 mi NNW 18.4 mph 26.5 mph N/A   Clear
1:15 PM 77.9 °F 43.5 °F 29% 29.91 in 10.0 mi NW 19.6 mph 24.2 mph N/A   Clear
1:35 PM 79.0 °F 43.5 °F 28% 29.91 in 10.0 mi NNW 17.3 mph 23.0 mph N/A   Clear
1:55 PM 79.2 °F 42.1 °F 27% 29.91 in 10.0 mi NW 13.8 mph 24.2 mph N/A   Clear
2:15 PM 79.7 °F 39.7 °F 24% 29.92 in 10.0 mi NW 16.1 mph - N/A   Clear
2:35 PM 80.2 °F 40.3 °F 24% 29.91 in 10.0 mi NW 15.0 mph 24.2 mph N/A   Clear
2:55 PM 81.3 °F 40.3 °F 23% 29.91 in 10.0 mi NW 16.1 mph 23.0 mph N/A   Clear
3:15 PM 81.1 °F 38.1 °F 21% 29.90 in 10.0 mi NW 16.1 mph 24.2 mph N/A   Clear
3:35 PM 82.4 °F 38.5 °F 21% 29.90 in 10.0 mi WNW 13.8 mph 18.4 mph N/A   Clear
3:55 PM 81.7 °F 36.3 °F 20% 29.90 in 10.0 mi NNW 10.4 mph 25.3 mph N/A   Clear
4:15 PM 81.9 °F 36.0 °F 19% 29.90 in 10.0 mi NW 16.1 mph - N/A   Clear
4:35 PM 82.4 °F 36.5 °F 19% 29.89 in 10.0 mi NNW 9.2 mph 20.7 mph N/A   Clear
4:55 PM 82.6 °F 36.9 °F 19% 29.89 in 10.0 mi NNW 11.5 mph 17.3 mph N/A   Clear
5:15 PM 82.4 °F 35.1 °F 18% 29.89 in 10.0 mi NW 15.0 mph 19.6 mph N/A   Clear
5:35 PM 82.0 °F 35.4 °F 19% 29.89 in 10.0 mi North 10.4 mph - N/A   Clear
5:55 PM 82.0 °F 34.7 °F 18% 29.89 in 10.0 mi NNW 11.5 mph - N/A   Clear
6:15 PM 81.1 °F 33.1 °F 18% 29.90 in 10.0 mi NNW 12.7 mph 19.6 mph N/A   Clear
6:35 PM 80.6 °F 34.7 °F 19% 29.91 in 10.0 mi NNW 11.5 mph 17.3 mph N/A   Clear
6:55 PM 79.3 °F 34.9 °F 20% 29.91 in 10.0 mi NNW 13.8 mph 19.6 mph N/A   Clear
7:15 PM 78.3 °F 35.2 °F 21% 29.91 in 10.0 mi North 12.7 mph - N/A   Clear
7:35 PM 77.0 °F 36.0 °F 23% 29.92 in 10.0 mi North 9.2 mph - N/A   Clear
7:55 PM 75.6 °F 36.7 °F 24% 29.93 in 10.0 mi North 6.9 mph - N/A   Clear
8:15 PM 73.0 °F 37.8 °F 28% 29.94 in 10.0 mi North 4.6 mph - N/A   Clear
8:35 PM 71.1 °F 38.1 °F 30% 29.95 in 10.0 mi NNE 3.5 mph - N/A   Clear
8:55 PM 70.3 °F 38.1 °F 31% 29.96 in 10.0 mi NNE 3.5 mph - N/A   Clear
9:15 PM 70.3 °F 38.5 °F 31% 29.96 in 10.0 mi North 5.8 mph - N/A   Clear
9:35 PM 68.4 °F 38.8 °F 34% 29.97 in 10.0 mi North 4.6 mph - N/A   Clear
9:55 PM 68.0 °F 39.4 °F 35% 29.98 in 10.0 mi North 4.6 mph - N/A   Clear
10:15 PM 67.8 °F 38.5 °F 34% 29.98 in 10.0 mi North 4.6 mph - N/A   Clear
10:35 PM 67.1 °F 37.9 °F 34% 29.99 in 10.0 mi North 4.6 mph - N/A   Clear
10:55 PM 65.7 °F 39.4 °F 38% 29.99 in 10.0 mi Calm Calm - N/A   Clear
11:15 PM 63.7 °F 43.2 °F 47% 29.99 in 10.0 mi Calm Calm - N/A   Clear
11:35 PM 62.2 °F 41.5 °F 47% 30.00 in 10.0 mi Calm Calm - N/A   Clear
11:55 PM 62.6 °F 40.6 °F 45% 29.99 in 10.0 mi Calm Calm - N/A   Clear